sat.trackr.live / text

‹ back to catalog

STARLINK-37940

NORAD 69690 · 2026-145P

PAYLOAD ACTIVE UNKNOWN

§ Identity

Operator
Country
US
Launch date
2026-06-25
Launch site
AFWTR
Launch vehicle
Mass (kg)
RCS (m²)

Purposes: comms

External: N2YO · Heavens-Above · Gunter

§ Orbital elements

Epoch: 2026-09-20T00:56:04.687296Z

Period
93.91 min
Inclination
97.2842°
Eccentricity
0.0001400
Mean motion
15.33447432 rev/d
Perigee alt
464.6 km
Apogee alt
466.5 km
Semi-major
6,843.7 km
B*
4.2903e-4
RAAN
109.7297°
Arg perigee
93.0271°
Mean anomaly
267.1132°
Rev number
1,347

§ Raw data

STARLINK-379401 69690U 26145P   26263.03894314  .00013802  00000+0  42903-3 0  99932 69690  97.2842 109.7297 0001400  93.0271 267.1132 15.33447432 13479

JSON: /api/v1/satellites/69690 · /tle

For live sub-satellite position, see the globe view (requires WebGL).

§ Visibility from observer

Set your observer location to see the next 7 days of passes ≥ 10°. The values pass through the URL so the page stays shareable.

No JS? Fill the form by hand. The geolocation button needs JavaScript.